Temperature
18 18 18 17 17 17 16 16 16 16 16 16 16 16 16 16 15 15 15 15 15 15 15 15 15 15 15 15 15 15 15 14 14 14 15 15 14 14 14 14 14 14 14
18 18 17 17 17 17 16 16 16 16 16 16 16 16 15 15 15 15 15 15 15 15 15 15 15 15 15 15 14 14 14 14 14 14 14 14 14 14 14 14 14 14 14
18 18 17 17 17 16 16 16 16 16 16 15 15 15 15 15 15 15 15 15 15 15 14 14 14 14 14 14 14 14 14 14 14 14 14 14 14 14 14 14 13 13 13
18 17 17 17 17 16 16 16 16 15 15 15 15 15 15 15 14 14 14 14 14 14 14 14 14 14 14 14 14 14 14 14 14 14 13 13 13 13 13 13 13 13 13
18 17 17 17 16 16 16 16 15 15 15 15 15 14 14 14 14 14 14 14 14 14 14 14 13 13 13 13 13 13 13 13 13 13 13 13 13 13 13 13 13 13 13
17 17 17 17 16 16 16 15 15 15 15 14 14 14 14 14 14 14 14 14 14 14 13 13 13 13 13 13 13 13 13 13 13 13 13 13 13 12 12 12 12 12 12
17 17 17 16 16 15 15 15 15 15 14 14 14 14 14 14 13 13 13 13 13 13 13 13 13 12 12 12 12 12 12 12 12 12 12 12 12 12 12 12 12 12 12
17 17 16 16 15 15 15 15 15 14 14 14 14 14 13 13 13 13 13 13 13 13 13 12 12 12 12 12 12 12 12 12 12 12 12 12 12 12 12 12 12 12 12
17 16 16 15 15 15 15 15 14 14 14 14 13 13 13 13 13 13 13 13 13 12 12 12 12 12 12 12 12 12 12 12 12 12 12 12 12 12 12 11 11 11 11
16 16 15 15 15 15 15 14 14 14 14 13 13 13 13 13 12 12 12 12 12 12 12 12 12 12 12 11 11 11 11 11 11 11 11 11 11 11 11 11 11 11 11
16 16 15 15 15 15 14 14 14 14 14 13 13 13 13 12 12 12 12 12 12 12 11 11 11 11 11 11 11 11 11 11 11 11 11 11 11 11 11 11 11 11 11
16 15 15 15 15 14 14 14 14 13 13 13 13 13 13 12 12 12 12 12 11 11 11 11 11 11 11 11 11 11 11 11 11 10 10 10 10 10 10 10 10 10 10
15 15 15 14 14 14 14 14 13 13 13 13 13 13 12 12 12 12 12 11 11 11 11 11 11 10 10 10 10 10 10 10 10 10 10 10 10 10 10 10 10 10 10
15 15 14 14 14 14 14 13 13 13 13 13 13 12 12 12 12 12 12 11 11 11 11 10 10 10 10 10 10 10 10 10 10 10 10 10 10 10 10 10 10 9 10
15 15 14 14 14 13 13 13 13 13 13 13 13 12 12 12 12 11 11 11 11 11 10 10 10 10 10 10 10 10 10 10 10 10 10 9 9 9 9 9 9 9 9
15 14 14 14 14 13 13 13 13 13 13 12 12 12 12 12 11 11 11 11 11 10 10 10 10 10 10 10 10 10 10 10 10 9 9 9 9 9 9 9 9 9 9
14 14 14 14 13 13 13 13 13 13 13 12 12 12 12 12 11 11 11 11 10 10 10 10 10 10 10 9 9 9 9 9 9 9 9 9 9 9 9 9 9 9 9
14 14 14 14 13 13 13 13 13 12 12 12 12 12 12 11 11 11 11 10 10 10 10 10 10 10 9 9 9 9 9 9 9 9 9 9 9 9 8 8 8 8 8
14 14 13 13 13 13 13 12 12 12 12 12 12 12 11 11 11 10 10 10 10 10 10 10 9 9 9 9 9 9 9 9 9 9 9 9 9 8 8 8 8 8 8
13 13 13 13 13 12 12 12 12 12 12 12 12 11 11 11 11 10 10 10 10 9 9 9 9 9 9 9 9 9 9 8 8 8 8 8 8 8 8 8 8 8 8
13 13 13 13 12 12 12 12 12 12 12 12 11 11 11 11 10 10 10 10 10 9 9 9 9 9 9 9 8 8 8 8 8 8 8 8 8 8 8 8 8 8 8
13 13 13 12 12 12 12 12 12 11 11 11 11 11 11 10 10 10 10 10 9 9 9 9 9 9 8 8 8 8 8 8 8 8 8 8 8 8 8 8 8 8 7
13 13 12 12 12 12 12 11 11 11 11 11 11 10 10 10 10 10 9 9 9 9 9 9 8 8 8 8 8 8 8 8 7 7 7 7 7 7 7 7 7 7 7
13 12 12 12 12 11 11 11 11 11 11 11 10 10 10 10 10 9 9 9 9 9 9 8 8 8 8 8 8 7 7 7 7 7 7 7 7 7 7 7 7 7 7
12 12 12 11 11 11 11 11 11 11 11 10 10 10 10 9 9 9 9 9 9 8 8 8 8 8 8 7 7 7 7 7 7 7 7 7 7 7 7 7 7 7 6
12 12 12 11 11 11 11 11 10 10 10 10 10 10 9 9 9 9 9 9 8 8 8 8 8 7 7 7 7 7 7 7 7 7 7 6 6 6 6 6 6 6 6
Wind_Speed
4 3 2 2 2 2 2 1 1 0 1 1 0 0 0 0 1 1 1 1 1 2 1 1 2 1 1 1 1 1 1 1 2 3 2 3 2 2 2 3 5 5 5
4 3 3 2 2 2 1 1 1 1 1 1 1 1 1 1 1 1 1 1 1 2 2 1 2 2 2 2 1 1 1 1 2 3 3 2 2 2 1 2 3 4 4
4 4 2 1 1 2 1 1 0 0 0 1 1 1 2 2 1 1 1 1 1 1 1 1 2 2 2 2 2 1 1 1 1 1 2 2 2 2 1 1 2 1 3
4 3 2 2 2 2 2 1 1 1 0 1 1 1 1 1 1 1 1 1 1 1 1 1 1 1 1 2 1 1 1 1 1 0 1 2 2 2 1 1 2 2 2
5 4 2 2 1 1 1 1 1 1 1 1 1 2 1 1 1 1 1 1 1 2 2 2 1 2 2 2 1 1 0 0 1 1 1 2 2 2 2 1 2 2 3
4 3 2 1 1 1 1 1 1 1 1 2 2 1 1 2 3 3 2 1 1 1 1 2 2 2 4 4 4 2 1 1 1 0 1 2 2 2 2 2 1 1 2
3 2 2 2 1 1 1 1 1 1 1 2 1 1 2 2 3 3 3 1 1 1 1 1 2 3 3 2 3 4 3 2 1 2 2 3 3 3 2 2 1 2 3
3 2 2 2 2 1 1 1 1 1 2 1 1 1 1 2 4 3 3 2 1 1 1 1 1 2 3 2 2 3 3 3 3 1 2 3 3 3 3 3 2 1 2
2 2 2 2 2 1 1 1 1 2 2 1 1 1 1 2 4 3 3 1 1 2 2 1 1 1 4 3 2 2 3 4 4 3 2 2 3 3 1 1 0 1 1
2 2 2 2 2 2 2 1 1 2 2 1 1 0 1 1 2 3 2 1 1 2 2 2 2 2 3 2 1 1 2 4 4 5 4 5 3 3 2 2 2 2 1
2 2 1 2 3 3 2 1 1 1 1 1 1 1 0 1 2 2 2 1 0 1 2 2 3 3 3 3 2 1 3 3 3 2 3 3 3 3 2 1 2 2 2
2 2 1 1 2 2 2 1 1 1 1 1 0 1 2 2 2 2 2 1 1 1 2 2 3 4 4 4 3 3 4 3 1 2 2 3 3 3 3 2 2 3 3
2 1 1 1 1 1 2 1 1 1 1 1 1 2 2 2 2 4 3 3 2 1 2 3 4 5 5 4 5 5 3 1 1 1 2 3 3 3 3 2 1 1 1
2 1 1 1 1 1 1 1 2 2 2 2 2 2 2 2 2 2 2 2 3 2 3 4 5 5 4 4 4 4 2 1 1 2 3 3 2 2 2 1 1 0 1
2 1 1 1 1 1 1 2 3 3 4 4 4 3 3 3 4 4 2 2 3 3 2 2 2 2 3 3 3 3 2 1 1 2 2 2 2 2 2 2 1 0 0
2 1 1 1 1 1 1 2 2 2 2 4 5 5 4 5 5 4 4 4 4 2 0 1 2 2 3 3 3 3 2 2 2 2 2 2 2 2 2 2 1 0 1
3 3 2 2 2 2 2 2 2 3 2 3 4 5 5 5 4 3 3 2 1 1 0 2 2 3 3 3 3 2 3 3 2 2 2 2 2 2 2 2 2 1 1
3 3 3 2 2 2 2 3 3 3 2 3 4 5 5 5 4 3 1 1 1 1 2 2 3 3 3 3 3 3 3 2 2 2 2 2 2 2 2 2 2 2 2
3 2 2 2 2 2 2 2 2 3 3 3 2 2 3 3 3 2 1 1 2 3 3 3 3 3 3 3 3 3 3 2 2 2 2 3 2 2 2 3 2 2 2
2 3 3 2 2 1 2 2 2 2 2 2 3 3 1 1 0 1 1 2 2 3 3 3 3 3 3 3 3 2 2 2 2 2 2 3 3 2 3 3 2 2 2
2 2 2 1 1 2 2 2 2 2 2 2 3 3 4 3 3 3 2 2 3 3 3 3 3 3 3 3 3 3 2 2 2 2 2 3 3 3 3 3 3 3 2
2 2 2 2 2 2 2 2 2 2 2 2 2 2 3 2 2 2 2 2 3 3 3 3 2 3 3 3 2 2 2 2 3 3 3 3 2 2 2 1 1 2 2
2 2 1 1 1 1 1 2 2 2 2 2 2 2 2 2 2 2 3 3 3 3 2 2 2 2 2 1 1 1 2 2 3 3 3 2 2 2 2 2 2 2 2
2 2 1 1 1 2 2 2 2 2 3 3 2 2 2 3 3 3 3 3 2 2 2 1 1 2 2 1 1 0 1 2 2 2 2 2 2 2 2 2 2 3 2
2 2 1 2 2 2 2 2 2 3 3 3 3 3 3 3 3 3 3 2 2 2 2 2 1 1 1 1 1 2 3 4 4 3 1 1 2 3 2 2 2 2 3
2 2 2 2 2 2 2 2 2 2 2 2 3 3 3 3 3 3 2 2 2 2 2 1 1 1 1 0 1 2 3 4 4 4 2 1 1 1 2 2 2 2 2
Wind_Direction
166 165 153 159 163 155 155 191 190 187 141 118 169 118 349 34 67 76 339 357 340 309 309 315 297 293 303 296 275 259 249 203 249 285 283 294 284 289 256 222 220 214 216
167 155 160 164 157 157 183 214 175 143 176 158 76 46 19 28 41 64 312 326 312 299 304 320 312 321 314 300 289 272 256 230 217 273 301 311 300 276 256 243 236 223 215
150 150 158 171 172 182 192 198 133 126 75 55 75 56 33 27 23 9 316 306 314 307 309 318 319 352 342 331 329 318 296 308 208 227 290 308 318 333 338 296 284 270 242
142 142 152 194 202 205 195 177 169 158 114 41 64 82 63 53 41 11 14 2 355 349 343 328 325 323 313 305 315 306 318 346 338 258 305 325 328 335 3 325 319 313 291
141 145 171 201 194 184 185 193 183 142 102 104 84 75 63 63 41 29 337 359 8 352 350 340 346 3 5 359 353 312 328 8 0 356 319 336 328 339 317 291 292 306 300
140 161 176 174 177 189 203 188 156 114 99 86 90 91 43 34 24 22 26 344 335 333 334 335 336 349 4 10 12 18 68 165 215 223 273 285 277 275 279 288 278 306 298
151 167 169 166 169 194 182 131 146 144 114 97 77 57 33 10 23 26 35 37 331 307 288 307 333 346 4 353 350 4 354 328 245 210 243 265 253 248 241 284 273 249 259
148 159 173 167 184 190 146 147 165 153 142 129 90 68 48 8 15 23 31 43 15 338 311 275 299 327 343 350 350 355 339 329 305 283 234 256 264 253 223 219 227 252 295
152 172 185 175 172 163 160 178 171 145 142 145 133 125 90 344 1 15 34 28 13 347 343 342 334 306 327 -0 31 353 340 332 339 348 324 310 308 294 235 102 69 71 294
185 192 195 181 166 169 174 162 155 148 156 133 94 109 160 285 335 11 28 49 12 342 335 327 334 335 337 357 11 342 322 312 330 341 342 343 338 325 298 207 198 199 232
178 158 157 169 172 169 153 144 140 133 121 101 93 343 308 292 320 349 5 78 256 291 309 311 310 327 326 324 321 262 270 294 318 319 323 325 329 323 305 268 214 199 208
141 139 167 203 199 160 145 158 160 142 128 148 184 299 299 301 315 323 332 298 267 227 264 280 294 317 320 317 308 294 299 316 331 333 332 320 312 305 299 280 251 223 216
133 169 229 235 227 176 159 173 180 179 177 202 207 240 274 292 302 310 315 314 306 274 274 288 304 311 313 309 303 303 306 302 299 291 296 290 286 293 309 317 303 253 291
159 209 221 214 256 268 213 191 191 205 206 208 210 222 250 280 293 301 304 304 313 308 304 306 310 312 310 304 313 318 306 266 243 258 271 283 304 325 321 311 284 323 7
174 197 226 223 220 246 253 236 216 224 213 200 204 204 208 252 264 251 243 266 272 273 299 321 334 334 330 327 320 308 301 304 291 289 285 296 303 314 307 305 290 299 220
166 197 214 224 224 218 233 304 317 247 241 211 207 203 220 229 248 257 257 263 271 271 76 303 306 303 295 294 299 304 298 282 265 256 264 269 281 284 293 302 304 262 239
187 206 213 216 218 217 217 216 262 306 306 250 235 227 226 233 251 262 248 253 284 120 130 271 278 282 284 287 290 287 287 287 278 266 266 270 270 272 274 278 286 281 264
194 216 211 208 212 220 222 225 222 223 253 278 268 241 232 234 252 265 234 71 357 320 246 260 271 273 274 282 288 288 287 299 304 292 282 277 273 268 267 262 247 241 249
198 213 212 210 214 229 244 249 240 223 220 237 262 274 246 238 257 280 177 186 237 258 259 264 268 270 268 270 275 278 280 284 291 292 285 277 270 262 262 257 249 245 235
214 218 210 207 218 239 253 252 237 216 213 221 231 239 225 139 219 263 234 229 242 260 264 265 271 272 272 269 268 271 281 286 289 285 281 282 276 260 254 251 241 234 235
207 222 215 200 214 226 233 225 222 220 219 229 242 235 196 194 214 224 228 231 237 248 254 259 269 277 275 273 271 271 272 284 286 282 283 285 283 273 265 250 233 222 220
182 193 204 223 234 233 234 232 225 226 228 234 257 243 194 190 196 204 216 235 240 242 243 243 257 266 261 261 261 265 271 286 293 293 291 290 291 288 284 268 245 225 216
168 181 217 236 232 243 244 228 215 210 209 218 221 216 201 209 211 214 227 237 243 252 253 239 251 275 285 275 242 215 236 263 267 267 273 285 291 288 277 263 247 234 233
176 188 198 214 234 239 233 236 231 219 208 213 218 211 209 216 220 227 236 245 249 258 260 246 238 243 258 287 310 302 297 287 284 269 255 252 264 269 265 256 249 240 237
178 179 190 209 229 240 237 239 238 229 220 212 206 206 212 216 223 233 240 250 247 249 257 256 247 238 248 268 329 345 346 349 343 329 291 254 255 261 259 250 250 254 243
193 195 203 215 220 225 225 234 240 229 222 219 209 206 210 216 222 229 235 243 254 259 261 261 248 214 197 183 338 357 352 346 342 339 335 285 269 272 270 263 260 256 250
Height
1521 1521 1520 1520 1519 1519 1518 1517 1516 1515 1514 1513 1512 1512 1511 1510 1509 1508 1508 1507 1507 1506 1506 1505 1504 1504 1503 1502 1502 1501 1500 1499 1497 1496 1495 1494 1493 1493 1493 1493 1492 1492 1491
1520 1520 1519 1519 1518 1518 1517 1516 1516 1515 1514 1513 1512 1511 1510 1509 1508 1507 1506 1505 1505 1504 1504 1503 1502 1502 1501 1500 1499 1498 1497 1496 1495 1493 1492 1492 1491 1490 1490 1490 1489 1489 1488
1519 1519 1518 1518 1517 1517 1516 1516 1515 1514 1513 1512 1511 1510 1508 1507 1506 1505 1504 1503 1503 1502 1502 1501 1500 1500 1499 1498 1497 1496 1495 1494 1493 1491 1490 1490 1488 1488 1487 1487 1487 1487 1486
1517 1517 1517 1517 1516 1516 1515 1514 1513 1513 1512 1510 1509 1508 1507 1506 1505 1503 1503 1502 1501 1500 1500 1499 1498 1498 1497 1496 1495 1494 1493 1491 1490 1489 1488 1487 1486 1486 1485 1484 1483 1484 1483
1516 1516 1516 1516 1515 1515 1514 1513 1512 1511 1510 1509 1508 1507 1505 1504 1503 1502 1501 1500 1499 1498 1498 1497 1496 1496 1495 1494 1493 1491 1490 1489 1488 1487 1486 1485 1484 1484 1483 1482 1482 1481 1481
1515 1515 1515 1514 1514 1513 1512 1512 1511 1510 1509 1507 1506 1505 1504 1503 1501 1500 1499 1498 1497 1496 1495 1495 1494 1493 1492 1491 1490 1490 1489 1487 1486 1485 1484 1483 1482 1482 1481 1480 1479 1479 1478
1513 1514 1513 1513 1512 1512 1511 1510 1509 1508 1507 1506 1505 1504 1503 1501 1500 1499 1498 1497 1496 1494 1493 1493 1492 1491 1490 1489 1488 1488 1487 1486 1485 1484 1482 1481 1480 1480 1479 1478 1477 1477 1476
1511 1512 1512 1511 1511 1510 1509 1508 1508 1507 1506 1505 1504 1503 1501 1500 1499 1498 1496 1495 1494 1493 1491 1491 1490 1488 1488 1487 1486 1485 1484 1484 1483 1481 1480 1479 1478 1477 1476 1476 1475 1475 1474
1510 1510 1510 1509 1508 1508 1507 1506 1506 1505 1504 1503 1502 1501 1500 1499 1498 1497 1495 1494 1492 1491 1490 1489 1488 1487 1486 1485 1484 1483 1482 1481 1480 1479 1478 1477 1476 1475 1474 1473 1472 1472 1471
1508 1508 1508 1507 1506 1506 1505 1504 1504 1503 1503 1502 1501 1500 1499 1498 1497 1496 1494 1493 1491 1490 1489 1488 1487 1486 1485 1483 1482 1480 1479 1478 1477 1476 1475 1474 1473 1473 1472 1471 1470 1469 1468
1507 1506 1506 1505 1504 1504 1503 1503 1502 1502 1501 1501 1500 1499 1498 1497 1496 1495 1493 1492 1490 1489 1487 1486 1485 1484 1483 1482 1480 1479 1477 1476 1475 1474 1472 1471 1471 1470 1469 1468 1468 1467 1466
1504 1504 1503 1503 1503 1502 1502 1501 1501 1500 1500 1499 1499 1498 1497 1496 1495 1494 1492 1491 1489 1488 1486 1485 1484 1483 1481 1480 1479 1477 1476 1475 1473 1472 1470 1469 1468 1467 1466 1465 1465 1464 1464
1503 1502 1502 1501 1501 1500 1500 1499 1499 1499 1498 1497 1497 1496 1495 1495 1494 1493 1491 1490 1488 1487 1485 1484 1482 1481 1479 1478 1477 1475 1474 1472 1471 1469 1468 1467 1466 1465 1464 1463 1463 1462 1462
1501 1501 1500 1500 1499 1499 1498 1498 1497 1497 1496 1495 1495 1494 1493 1492 1492 1491 1489 1488 1487 1485 1484 1482 1481 1479 1478 1476 1474 1473 1472 1470 1468 1467 1466 1465 1464 1463 1462 1461 1460 1460 1458
1499 1499 1498 1498 1498 1497 1497 1496 1495 1495 1494 1493 1493 1492 1491 1490 1490 1489 1487 1486 1485 1484 1482 1480 1479 1477 1475 1473 1472 1470 1469 1468 1466 1465 1464 1462 1461 1461 1460 1459 1459 1458 1457
1497 1496 1496 1496 1495 1495 1494 1494 1493 1493 1493 1492 1491 1491 1490 1489 1488 1487 1486 1485 1483 1482 1480 1478 1476 1475 1473 1471 1470 1468 1467 1466 1464 1463 1462 1460 1459 1459 1458 1457 1457 1456 1455
1495 1495 1494 1494 1493 1493 1492 1491 1491 1491 1490 1490 1489 1488 1488 1487 1486 1485 1484 1483 1481 1480 1478 1476 1475 1473 1471 1470 1468 1466 1465 1464 1462 1461 1459 1458 1457 1456 1455 1454 1454 1453 1453
1493 1493 1493 1492 1491 1490 1490 1489 1488 1488 1487 1487 1487 1486 1486 1485 1484 1483 1482 1481 1479 1478 1476 1474 1473 1471 1469 1468 1466 1465 1463 1461 1460 1458 1457 1455 1454 1453 1452 1451 1451 1451 1450
1490 1490 1490 1490 1489 1488 1487 1486 1486 1485 1484 1484 1484 1483 1483 1482 1481 1480 1479 1478 1476 1475 1473 1472 1470 1469 1467 1465 1464 1462 1461 1459 1457 1455 1454 1452 1451 1450 1449 1448 1448 1448 1448
1488 1488 1487 1487 1486 1485 1484 1483 1483 1482 1482 1481 1481 1480 1480 1479 1478 1477 1476 1475 1473 1472 1471 1469 1468 1466 1465 1463 1461 1460 1458 1456 1454 1452 1450 1449 1448 1446 1445 1445 1444 1444 1444
1485 1485 1485 1484 1483 1482 1482 1481 1481 1480 1480 1479 1479 1478 1477 1476 1475 1474 1473 1472 1471 1469 1468 1466 1465 1463 1462 1460 1458 1456 1454 1452 1450 1449 1447 1445 1444 1443 1442 1441 1441 1441 1441
1482 1482 1481 1481 1480 1479 1479 1479 1478 1478 1477 1476 1476 1475 1474 1473 1472 1471 1470 1469 1468 1467 1465 1464 1462 1460 1459 1457 1455 1452 1450 1449 1447 1445 1443 1442 1440 1439 1438 1438 1437 1437 1437
1480 1479 1479 1478 1478 1477 1476 1476 1475 1474 1474 1474 1473 1472 1471 1470 1469 1468 1467 1466 1465 1464 1462 1461 1459 1457 1456 1454 1451 1449 1447 1445 1443 1441 1440 1438 1437 1436 1435 1435 1435 1434 1435
1478 1477 1476 1476 1475 1475 1474 1473 1473 1472 1471 1471 1470 1469 1468 1467 1467 1466 1465 1463 1462 1461 1459 1458 1456 1454 1452 1450 1449 1446 1444 1442 1440 1438 1436 1435 1434 1433 1433 1432 1432 1432 1432
1476 1475 1474 1473 1473 1472 1472 1471 1470 1470 1469 1468 1467 1466 1465 1465 1464 1463 1462 1460 1459 1457 1456 1454 1453 1451 1449 1447 1445 1443 1441 1439 1437 1435 1433 1432 1431 1430 1429 1429 1429 1429 1429
1473 1472 1472 1471 1471 1470 1470 1469 1468 1467 1466 1465 1464 1463 1463 1462 1461 1460 1459 1457 1456 1454 1452 1451 1449 1447 1446 1444 1442 1440 1438 1436 1434 1432 1431 1429 1428 1427 1427 1426 1426 1426 1426